カタログに戻る

COSMOS 1707

運用中軍事PO
NORAD 16326·PAYLOAD·🇷🇺 Russia

打ち上げ Dec 12, 1985 から Plesetsk Cosmodrome

Loading…

次のパス (今後24時間)

TLE

最新Source: Space-Track

元期: Sep 15, 2026, 04:33 UTC

1 16326U 85113A   26258.18993319  .02438444 -12254-5  61118-3 0  9991
2 16326  82.4661  66.2714 0007811 269.5831  90.4567 16.29009557231791

AllMySatでCOSMOS 1707をリアルタイム追跡

Download on the App Store